Regional Weather Roundup
Issued by NWS

Home | Current Version | Previous Version | Graphics & Text | Print | Product List | Glossary On
Versions: 1 2 3 4 5 6 7 8 9 10 11 12 13 14 15 16 17 18 19 20 21 22 23 24 25 26 27 28 29 30 31 32 33 34 35 36 37 38 39 40 41 42 43 44 45 46 47 48 49 50
000
ASUS43 KIND 201309
RWRIN

WEATHER ROUNDUP FOR INDIANA
NATIONAL WEATHER SERVICE INDIANAPOLIS IN
800 AM EST MON FEB 20 2017

NOTE: "FAIR" INDICATES FEW OR NO CLOUDS BELOW 12,000 FEET WITH NO
SIGNIFICANT WEATHER AND/OR OBSTRUCTIONS TO VISIBILITY.

* - STATION DOES NOT REPORT WEATHER SUCH AS PRECIPITATION OR FOG.

+ - STATION NOT QUALITY CONTROLLED BY THE NATIONAL WEATHER SERVICE.
    USE DATA WITH CAUTION...ESPECIALLY DEWPOINT AND RELATIVE
    HUMIDITY OBSERVATIONS.

INZ001>003-010>013-019-020-201400-
NORTHWEST INDIANA

CITY           SKY/WX    TMP DP  RH WIND       PRES   REMARKS
GARY /AIRPORT/ MOCLDY    46  45  93 SE8       30.15R FOG
KNOX *+        CLOUDY    41  30  65 SE7       30.18R
LA PORTE +     PTCLDY    38  35  87 CALM      30.18R
MICHIGAN CITY+ PTCLDY    43  37  81 SE5       30.18R
MONTICELLO +   PTCLDY    42  41  95 SE3       30.17S FOG
RENSSELAER +   FOG       41  41 100 SE3       30.17S VSB 1/2
VALPARAISO     CLOUDY    44  42  93 E5        30.17R FOG

$$

LMZ046-743>745-201400-
SOUTHERN LAKE MICHIGAN

STATION/POSITION TIME  TEMP    WIND        PRES    WAVE
                       AIR SEA DIR/SP/G            HT
                 (UTC) (F)     (DEG/KT/KT) (MB)    (FT)
BURNS HARBOR     1240   48     150/  6/ 10 1021.7R
MICHIGAN CITY    1240   46     120/  6/  8   N/A

$$

INZ004-005-014>016-021>024-201400-
NORTH CENTRAL INDIANA

CITY           SKY/WX    TMP DP  RH WIND       PRES   REMARKS
ELKHART        MOCLDY    39  28  65 CALM      30.20R
GOSHEN         CLOUDY    37  30  75 CALM      30.20R
LOGANSPORT +   FOG       37  36  93 E5        30.20R VSB<1/4
PERU/GRISSOM   FOG       41  41 100 SE5       30.19R VSB 1/4
ROCHESTER +      N/A     41  41 100 SE3       30.20R FOG
SOUTH BEND     PTCLDY    41  32  70 E5        30.19R
WARSAW +       MOCLDY    34  32  93 CALM      30.21R

$$

INZ006>009-017-018-025>027-201400-
NORTHEAST INDIANA

CITY           SKY/WX    TMP DP  RH WIND       PRES   REMARKS
ANGOLA *+      CLEAR     37  36  93 SE6       30.23R
AUBURN +       PTCLDY    37  32  81 E6        30.23R
FORT WAYNE     CLOUDY    36  32  85 E3        30.23R
HUNTINGTON +   FOG       35  33  95 CALM      30.22R VSB<1/4
KENDALLVILLE + PTCLDY    39  31  73 E3        30.23R

$$

INZ028-029-035-036-043>045-051>053-201400-
WEST CENTRAL INDIANA

CITY           SKY/WX    TMP DP  RH WIND       PRES   REMARKS
GREENCASTLE +  FOG       41  41 100 SE5       30.19R VSB<1/4
LAFAYETTE      CLOUDY    42  42 100 E5        30.17S FOG
TERRE HAUTE    FOG       42  41  96 E5        30.17S VSB 1/2

$$

INZ030>032-037>040-046>048-054>057-064-065-201400-
CENTRAL INDIANA

CITY           SKY/WX    TMP DP  RH WIND       PRES   REMARKS
CP ATTERBURY + CLOUDY    39  37  93 E5        30.22S VSB<1/4
COLUMBUS       FOG       37  37 100 CALM      30.23R VSB 1/4
FRANKFORT +    FOG       42  41  98 SE7       30.20S VSB<1/4
GREENWOOD *+   CLOUDY    42  42 100 SE3       30.21S VSB<1/4
INDIANAPOLIS   FOG       42  42 100 SE7       30.20R VSB 1/8
-EAGLE CREEK   FOG       43  42  97 SE3       30.19S VSB<1/4
KOKOMO +       FOG       41  41 100 SE3       30.21R VSB<1/4
MARION +       FOG       38  38 100 SE3       30.21R VSB<1/4
MT COMFORT *+  CLOUDY    39  39 100 SE7       30.21S VSB<1/4
SHELBYVILLE    FOG       39  37  92 E3        30.21R VSB<1/4
ZIONSVILLE +   FOG       41  41 100 SE5       30.21R VSB<1/4

$$

INZ033-034-041-042-049-050-058-059-201400-
EAST CENTRAL INDIANA

CITY           SKY/WX    TMP DP  RH WIND       PRES   REMARKS
MUNCIE         FOG       41  40  96 S3        30.21R VSB 1/4

$$

INZ060-061-067>069-081>083-085>088-201400-
SOUTHWEST INDIANA

CITY           SKY/WX    TMP DP  RH WIND       PRES   REMARKS
EVANSVILLE     CLOUDY    44  42  93 NE5       30.17R FOG
HUNTINGBURG *+ PTCLDY    45  45 100 E6        30.18S FOG
WASHINGTON +   FOG       40  38  94 E3        30.17F VSB<1/4

$$

INZ062-063-066-070>080-084-089>092-201400-
SOUTH CENTRAL AND SOUTHEAST INDIANA

CITY           SKY/WX    TMP DP  RH WIND       PRES   REMARKS
BEDFORD +      LGT RAIN  39  37  93 CALM      30.20  VSB<1/4
BLOOMINGTON    FOG       41  39  93 SE6       30.19S VSB<1/4
MADISON *+     CLOUDY    37  37 100 CALM      30.24R VSB<1/4
NORTH VERNON + FOG      N/A N/A N/A CALM      30.23R VSB<1/4
SEYMOUR +      FOG       39  39 100 NE3       30.22R VSB<1/4

$$





USA.gov is the U.S. government's official web portal to all federal, state and local government web resources and services.